FW2216 Weather Reports


time (UTC)temp
C
wind
direction
speed
KPH
gust
KPH
rain 1hr
cm
rain 24hr
cm
rain mn
cm
humidity
%
barometer
mb
20260503213329 19 126 0.0 8.0 0.00 0.00 0.00 25 1022.4
20260503212819 19 280 1.6 8.0 0.00 0.00 0.00 24 1022.5
20260503212349 19 115 1.6 8.0 0.00 0.00 0.00 23 1022.4
20260503211819 19 101 1.6 8.0 0.00 0.00 0.00 23 1022.6
20260503211332 19 11 1.6 8.0 0.00 0.00 0.00 24 1022.6
20260503210823 20 63 1.6 6.4 0.00 0.00 0.00 26 1022.7
20260503210334 20 117 4.8 8.0 0.00 0.00 0.00 25 1022.5
20260503205824 20 198 3.2 8.0 0.00 0.00 0.00 24 1022.6
20260503205355 20 101 3.2 6.4 0.00 0.00 0.00 26 1022.7
20260503204825 21 111 3.2 4.8 0.00 0.00 0.00 25 1022.8
20260503204316 21 114 0.0 8.0 0.00 0.00 0.00 25 1022.8
20260503203826 20 134 0.0 8.0 0.00 0.00 0.00 25 1022.9
20260503203317 21 103 1.6 8.0 0.00 0.00 0.00 23 1022.9
20260503202831 20 123 1.6 8.0 0.00 0.00 0.00 24 1022.9
20260503202321 20 127 3.2 6.4 0.00 0.00 0.00 24 1022.9
20260503201832 20 308 0.0 6.4 0.00 0.00 0.00 23 1023.1
20260503201323 20 218 0.0 8.0 0.00 0.00 0.00 23 1023.1
20260503200834 20 112 1.6 6.4 0.00 0.00 0.00 21 1023.2
20260503200324 21 75 1.6 6.4 0.00 0.00 0.00 23 1023.3
20260503195835 21 115 1.6 4.8 0.00 0.00 0.00 22 1023.4
20260503195326 20 141 0.0 4.8 0.00 0.00 0.00 23 1023.5
20260503194821 20 117 1.6 4.8 0.00 0.00 0.00 23 1023.5
20260503194330 20 129 1.6 4.8 0.00 0.00 0.00 21 1023.7
20260503193821 20 205 1.6 9.7 0.00 0.00 0.00 25 1023.9
20260503193332 20 113 6.4 9.7 0.00 0.00 0.00 22 1023.8
20260503192822 20 310 1.6 8.0 0.00 0.00 0.00 23 1024.0
20260503192332 20 100 3.2 8.0 0.00 0.00 0.00 27 1024.0
20260503191821 20 252 0.0 6.4 0.00 0.00 0.00 25 1023.9
20260503191331 20 102 3.2 6.4 0.00 0.00 0.00 26 1024.0
20260503190822 20 135 1.6 6.4 0.00 0.00 0.00 25 1024.0
20260503190332 20 110 3.2 6.4 0.00 0.00 0.00 27 1024.0
20260503185824 20 77 1.6 6.4 0.00 0.00 0.00 28 1024.1
20260503185355 20 218 1.6 8.0 0.00 0.00 0.00 34 1024.2
20260503184824 20 219 0.0 8.0 0.00 0.00 0.00 32 1024.2
20260503184336 20 182 1.6 6.4 0.00 0.00 0.00 33 1024.4
20260503183825 20 110 1.6 3.2 0.00 0.00 0.00 31 1024.5
20260503183316 20 195 0.0 6.4 0.00 0.00 0.00 36 1024.6
20260503182827 20 263 1.6 9.7 0.00 0.00 0.00 34 1024.6
20260503182317 20 252 1.6 9.7 0.00 0.00 0.00 34 1024.5
20260503181828 20 250 0.0 6.4 0.00 0.00 0.00 34 1024.5
20260503181316 20 278 0.0 4.8 0.00 0.00 0.00 35 1024.6
20260503180826 20 51 1.6 4.8 0.00 0.00 0.00 35 1024.6
20260503180321 19 88 1.6 3.2 0.00 0.00 0.00 37 1024.7
20260503175832 19 93 0.0 6.4 0.00 0.00 0.00 36 1024.7
20260503175343 19 249 1.6 6.4 0.00 0.00 0.00 35 1024.8
20260503174852 19 218 1.6 6.4 0.00 0.00 0.00 36 1024.9
20260503174321 18 150 0.0 4.8 0.00 0.00 0.00 36 1024.9
20260503173851 18 238 0.0 4.8 0.00 0.00 0.00 36 1025.0
20260503173321 18 140 0.0 4.8 0.00 0.00 0.00 35 1025.1
20260503172830 18 228 0.0 1.6 0.00 0.00 0.00 40 1025.1
20260503172321 18 146 0.0 4.8 0.00 0.00 0.00 39 1025.2
20260503171832 17 193 1.6 4.8 0.00 0.00 0.00 38 1025.3
20260503171323 17 70 1.6 8.0 0.00 0.00 0.00 41 1025.3
20260503170818 17 256 3.2 8.0 0.00 0.00 0.00 37 1025.5
20260503170327 17 195 1.6 4.8 0.00 0.00 0.00 39 1025.5
20260503150832 11 136 0.0 1.6 0.00 0.00 0.00 59 1027.0
20260503150343 10 105 0.0 4.8 0.00 0.00 0.00 56 1026.9
20260503131333 4 108 0.0 0.0 0.00 0.00 0.00 96 1027.2
20260503130825 3 108 0.0 0.0 0.00 0.00 0.00 96 1027.2
20260503130319 3 108 0.0 0.0 0.00 0.00 0.00 96 1027.2
20260503110327 1 108 0.0 0.0 0.00 0.00 0.00 95 1026.2
20260503090319 2 108 0.0 0.0 0.00 0.00 0.00 93 1025.0
20260503081325 2 108 0.0 0.0 0.00 0.00 0.00 93 1024.6
20260503080834 2 108 0.0 0.0 0.00 0.00 0.00 93 1024.6
20260503080324 3 108 0.0 0.0 0.00 0.00 0.00 92 1024.5
20260503072840 3 108 0.0 0.0 0.00 0.00 0.00 92 1024.3
20260503072329 3 108 0.0 0.0 0.00 0.00 0.00 92 1024.1
20260503071820 3 108 0.0 0.0 0.00 0.00 0.00 91 1024.1
20260503071331 3 108 0.0 0.0 0.00 0.00 0.00 91 1024.1
20260503070842 3 108 0.0 0.0 0.00 0.00 0.00 91 1024.0
20260503070317 3 108 0.0 0.0 0.00 0.00 0.00 91 1024.0
20260503060328 5 108 0.0 0.0 0.00 0.00 0.00 87 1023.8
20260503054839 5 108 0.0 0.0 0.00 0.00 0.00 85 1023.8
20260503054329 5 108 0.0 0.0 0.00 0.00 0.00 85 1023.8
20260503053821 5 108 0.0 0.0 0.00 0.00 0.00 84 1023.8
20260503053334 6 108 0.0 0.0 0.00 0.00 0.00 84 1023.9
20260503052824 6 108 0.0 0.0 0.00 0.00 0.00 84 1023.9
20260503052334 6 108 0.0 0.0 0.00 0.00 0.00 84 1023.8
20260503051843 6 108 0.0 0.0 0.00 0.00 0.00 85 1023.9
20260503051331 6 108 0.0 0.0 0.00 0.00 0.00 84 1024.0
20260503050823 5 108 0.0 0.0 0.00 0.00 0.00 84 1023.9
20260503050334 5 108 0.0 0.0 0.00 0.00 0.00 85 1023.9
20260503045825 5 108 0.0 0.0 0.00 0.00 0.00 84 1023.9
20260503045356 5 108 0.0 0.0 0.00 0.00 0.00 85 1023.9
20260503044846 5 108 0.0 0.0 0.00 0.00 0.00 85 1023.9
20260503044319 5 108 0.0 0.0 0.00 0.00 0.00 85 1023.9
20260503043828 5 108 0.0 0.0 0.00 0.00 0.00 85 1023.8
20260503043318 5 108 0.0 0.0 0.00 0.00 0.00 85 1023.9
20260503042829 5 108 0.0 0.0 0.00 0.00 0.00 85 1023.8
20260503042320 5 108 0.0 0.0 0.00 0.00 0.00 85 1023.7
20260503041829 5 108 0.0 0.0 0.00 0.00 0.00 85 1023.6
20260503041321 5 108 0.0 0.0 0.00 0.00 0.00 85 1023.6
20260503040851 5 108 0.0 0.0 0.00 0.00 0.00 85 1023.6
20260503040322 5 108 0.0 0.0 0.00 0.00 0.00 85 1023.5
20260503035824 5 108 0.0 0.0 0.00 0.00 0.00 85 1023.5
20260503035320 5 108 0.0 0.0 0.00 0.00 0.00 84 1023.5
20260503034831 5 108 0.0 0.0 0.00 0.00 0.00 84 1023.4
20260503034323 5 108 0.0 0.0 0.00 0.00 0.00 84 1023.3
20260503033831 5 108 0.0 0.0 0.00 0.00 0.00 83 1023.3
20260503033321 5 108 0.0 0.0 0.00 0.00 0.00 83 1023.2
20260503032831 5 108 0.0 0.0 0.00 0.00 0.00 83 1023.3
20260503032322 5 108 0.0 0.0 0.00 0.00 0.00 83 1023.3
20260503031833 5 108 0.0 0.0 0.00 0.00 0.00 82 1023.3
20260503031327 5 108 0.0 0.0 0.00 0.00 0.00 82 1023.3
20260503030818 5 108 0.0 0.0 0.00 0.00 0.00 81 1023.2
20260503030326 5 108 0.0 0.0 0.00 0.00 0.00 80 1023.2
20260503025836 5 108 0.0 0.0 0.00 0.00 0.00 80 1023.1
20260503025346 5 108 0.0 0.0 0.00 0.00 0.00 79 1023.1
20260503024834 6 108 0.0 0.0 0.00 0.00 0.00 79 1023.0
20260503024324 6 108 0.0 0.0 0.00 0.00 0.00 78 1023.0
20260503023855 6 108 0.0 0.0 0.00 0.00 0.00 77 1022.9
20260503023324 6 108 0.0 0.0 0.00 0.00 0.00 76 1022.9
20260503022816 6 109 0.0 0.0 0.00 0.00 0.00 76 1022.8
20260503022326 6 108 0.0 1.6 0.00 0.00 0.00 75 1022.7
20260503021840 6 108 0.0 0.0 0.00 0.00 0.00 74 1022.6
20260503021329 6 108 0.0 0.0 0.00 0.00 0.00 74 1022.6
20260503020820 7 108 0.0 0.0 0.00 0.00 0.00 73 1022.6
20260503020331 7 108 0.0 0.0 0.00 0.00 0.00 72 1022.6
20260503015822 7 108 0.0 0.0 0.00 0.00 0.00 71 1022.5
20260503015332 7 108 0.0 0.0 0.00 0.00 0.00 70 1022.4
20260503014824 7 108 0.0 0.0 0.00 0.00 0.00 69 1022.3
20260503014334 8 108 0.0 0.0 0.00 0.00 0.00 68 1022.2
20260503013824 8 108 0.0 0.0 0.00 0.00 0.00 66 1022.1
20260503013319 8 108 0.0 0.0 0.00 0.00 0.00 65 1022.0
20260503012830 8 108 0.0 0.0 0.00 0.00 0.00 63 1022.0
20260503012320 9 108 0.0 0.0 0.00 0.00 0.00 61 1021.9
20260503011830 9 108 0.0 0.0 0.00 0.00 0.00 60 1021.8
20260503011320 10 108 0.0 0.0 0.00 0.00 0.00 59 1021.7
20260503010830 10 108 0.0 0.0 0.00 0.00 0.00 57 1021.6
20260503010321 10 108 0.0 1.6 0.00 0.00 0.00 56 1021.6
20260503005852 10 108 0.0 1.6 0.00 0.00 0.00 56 1021.5
20260503005321 11 108 0.0 0.0 0.00 0.00 0.00 53 1021.4
20260503004836 11 108 0.0 0.0 0.00 0.00 0.00 51 1021.4
20260503004324 11 99 0.0 1.6 0.00 0.00 0.00 51 1021.3
20260503003835 11 99 0.0 3.2 0.00 0.00 0.00 50 1021.2
20260503003326 11 99 1.6 3.2 0.00 0.00 0.00 48 1021.2
20260503002818 11 105 1.6 1.6 0.00 0.00 0.00 49 1021.1
20260503002328 11 105 0.0 1.6 0.00 0.00 0.00 49 1021.0
20260503001819 12 105 0.0 3.2 0.00 0.00 0.00 49 1020.9
20260503001330 12 105 0.0 3.2 0.00 0.00 0.00 46 1020.9
20260503000821 12 232 0.0 3.2 0.00 0.00 0.00 45 1020.8
20260503000331 12 109 0.0 4.8 0.00 0.00 0.00 46 1020.7
20260502235821 12 97 1.6 6.4 0.00 0.00 0.00 44 1020.6
20260502235331 12 128 0.0 6.4 0.00 0.00 0.00 44 1020.6
20260502234821 12 120 1.6 4.8 0.00 0.00 0.00 44 1020.6
20260502234331 12 119 0.0 8.0 0.00 0.00 0.00 43 1020.4
20260502233823 12 142 3.2 9.7 0.00 0.00 0.00 42 1020.4
20260502233332 13 143 3.2 9.7 0.00 0.00 0.00 42 1020.4
20260502232822 13 96 3.2 4.8 0.00 0.00 0.00 41 1020.3
20260502232317 13 108 1.6 4.8 0.00 0.00 0.00 40 1020.2
20260502231828 13 100 1.6 6.4 0.00 0.00 0.00 41 1020.1
20260502231318 13 86 1.6 4.8 0.00 0.00 0.00 38 1020.1
20260502230829 13 100 1.6 4.8 0.00 0.00 0.00 39 1020.1
20260502230318 13 94 1.6 8.0 0.00 0.00 0.00 38 1019.9
20260502225828 13 95 4.8 8.0 0.00 0.00 0.00 37 1019.9
20260502225318 14 106 0.0 4.8 0.00 0.00 0.00 39 1019.9
20260502224829 14 115 1.6 6.4 0.00 0.00 0.00 38 1020.0
20260502224324 14 99 0.0 6.4 0.00 0.00 0.00 39 1020.0
20260502223834 14 90 3.2 8.0 0.00 0.00 0.00 38 1019.9
20260502223324 14 119 3.2 8.0 0.00 0.00 0.00 37 1019.9
20260502222855 14 105 1.6 6.4 0.00 0.00 0.00 36 1019.7
20260502222324 14 103 1.6 9.7 0.00 0.00 0.00 36 1019.9
20260502221816 15 88 4.8 9.7 0.00 0.00 0.00 35 1019.7
20260502221326 15 100 3.2 11.3 0.00 0.00 0.00 34 1019.7
20260502220818 15 95 1.6 11.3 0.00 0.00 0.00 34 1019.6
20260502220329 15 103 4.8 9.7 0.00 0.00 0.00 33 1019.6
20260502215823 15 103 1.6 9.7 0.00 0.00 0.00 34 1019.6
20260502215352 15 115 3.2 14.5 0.00 0.00 0.00 35 1019.4
20260502214822 16 61 3.2 8.0 0.00 0.00 0.00 33 1019.4
20260502214333 16 96 3.2 9.7 0.00 0.00 0.00 34 1019.2
20260502213825 16 110 4.8 14.5 0.00 0.00 0.00 33 1019.2